W5CRT Weather Reports


time (UTC)temp
C
wind
direction
speed
KPH
gust
KPH
rain 1hr
cm
rain 24hr
cm
rain mn
cm
humidity
%
barometer
mb
20260505140410 23 178 8.0 20.9 0.00 0.00 0.00 79 1003.0
20260505124823 22 155 8.0 11.3 0.00 0.00 0.00 81 1002.8
20260505124320 22 223 3.2 20.9 0.00 0.00 0.00 81 1002.8
20260505123816 22 149 9.7 17.7 0.00 0.00 0.00 82 1002.7
20260505123313 22 205 12.9 16.1 0.00 0.00 0.00 82 1002.5
20260505122809 22 146 1.6 17.7 0.00 0.00 0.00 82 1002.6
20260505122306 22 215 4.8 22.5 0.00 0.00 0.00 82 1002.7
20260505121802 22 155 20.9 29.0 0.00 0.00 0.00 82 1002.5
20260505121300 21 166 4.8 9.7 0.00 0.00 0.00 82 1002.4
20260505120756 21 161 9.7 11.3 0.00 0.00 0.00 82 1002.6
20260505120252 21 163 8.0 19.3 0.00 0.00 0.00 82 1002.4
20260505115751 21 192 4.8 17.7 0.00 0.00 0.00 82 1002.3
20260505115248 21 138 3.2 14.5 0.00 0.00 0.00 82 1002.4
20260505114746 21 178 11.3 17.7 0.00 0.00 0.00 82 1002.4
20260505114242 21 182 4.8 17.7 0.00 0.00 0.00 82 1001.8
20260505113739 21 206 6.4 17.7 0.00 0.00 0.00 82 1002.2
20260505113235 21 196 6.4 14.5 0.00 0.00 0.00 82 1002.2
20260505112731 21 168 4.8 16.1 0.00 0.00 0.00 82 1002.0
20260505112229 21 212 6.4 14.5 0.00 0.00 0.00 82 1002.3
20260505111729 21 148 4.8 17.7 0.00 0.00 0.00 82 1002.1
20260505111225 21 140 3.2 14.5 0.00 0.00 0.00 82 1002.1
20260505110721 21 168 8.0 12.9 0.00 0.00 0.00 82 1001.7
20260505110219 21 161 4.8 17.7 0.00 0.00 0.00 82 1001.7
20260505102154 21 163 4.8 14.5 0.00 0.00 0.00 82 1002.3
20260505101653 21 186 9.7 12.9 0.00 0.00 0.00 81 1002.0
20260505101149 21 169 4.8 17.7 0.00 0.00 0.00 81 1002.1
20260505100645 21 79 4.8 12.9 0.00 0.00 0.00 82 1002.3
20260505100142 21 152 6.4 12.9 0.00 0.00 0.00 82 1002.2
20260505095638 21 191 9.7 12.9 0.00 0.00 0.00 82 1002.5
20260505095135 21 159 6.4 14.5 0.00 0.00 0.00 82 1002.6
20260505094631 21 119 14.5 27.4 0.00 0.00 0.00 82 1002.5
20260505094128 21 109 1.6 17.7 0.00 0.00 0.00 82 1002.5
20260505093624 21 169 12.9 27.4 0.00 0.00 0.00 82 1002.5
20260505093121 21 133 6.4 19.3 0.00 0.00 0.00 82 1002.4
20260505092618 21 153 9.7 19.3 0.00 0.00 0.00 82 1002.8
20260505092118 21 210 6.4 19.3 0.00 0.00 0.00 82 1002.6
20260505091613 21 160 8.0 20.9 0.00 0.00 0.00 82 1002.8
20260505091112 21 168 3.2 14.5 0.00 0.00 0.00 82 1002.4
20260505090609 21 160 16.1 17.7 0.00 0.00 0.00 82 1002.4
20260505090107 21 162 12.9 19.3 0.00 0.00 0.00 82 1002.4
20260505085604 21 182 12.9 17.7 0.00 0.00 0.00 82 1002.4
20260505085103 21 212 14.5 30.6 0.00 0.00 0.00 82 1002.5
20260505084600 21 164 14.5 25.7 0.00 0.00 0.00 82 1002.3
20260505084058 21 176 9.7 27.4 0.00 0.00 0.00 82 1002.2
20260505083555 21 160 12.9 19.3 0.00 0.00 0.00 82 1002.4
20260505083052 21 212 8.0 12.9 0.00 0.00 0.00 82 1002.1
20260505082547 21 175 8.0 22.5 0.00 0.00 0.00 82 1002.5
20260505082045 21 163 9.7 24.1 0.00 0.00 0.00 82 1002.4
20260505081541 21 132 4.8 17.7 0.00 0.00 0.00 82 1002.4
20260505081038 21 140 6.4 17.7 0.00 0.00 0.00 82 1002.6
20260505080534 21 145 3.2 12.9 0.00 0.00 0.00 82 1002.5
20260505080031 21 146 8.0 22.5 0.00 0.00 0.00 81 1002.6
20260505075527 21 157 9.7 14.5 0.00 0.00 0.00 81 1002.7
20260505075024 21 165 14.5 19.3 0.00 0.00 0.00 81 1002.9
20260505074521 21 218 11.3 14.5 0.00 0.00 0.00 81 1002.8
20260505074018 21 188 8.0 16.1 0.00 0.00 0.00 80 1003.1
20260505073516 21 164 6.4 16.1 0.00 0.00 0.00 80 1003.0
20260505073014 21 175 9.7 20.9 0.00 0.00 0.00 80 1003.2
20260505072509 21 149 1.6 12.9 0.00 0.00 0.00 80 1003.2
20260505072006 22 167 8.0 9.7 0.00 0.00 0.00 79 1003.3
20260505071501 22 147 6.4 20.9 0.00 0.00 0.00 79 1003.2
20260505071000 22 188 9.7 14.5 0.00 0.00 0.00 79 1003.5
20260505070456 22 173 11.3 22.5 0.00 0.00 0.00 79 1003.5
20260505065952 22 138 12.9 16.1 0.00 0.00 0.00 78 1003.5
20260505065448 22 163 6.4 16.1 0.00 0.00 0.00 78 1003.5
20260505064945 22 309 4.8 14.5 0.00 0.00 0.00 78 1003.8
20260505064442 22 180 9.7 12.9 0.00 0.00 0.00 78 1003.7
20260505063941 22 162 4.8 16.1 0.00 0.00 0.00 77 1003.8
20260505063437 22 135 11.3 19.3 0.00 0.00 0.00 77 1003.7
20260505062933 22 162 9.7 12.9 0.00 0.00 0.00 77 1003.6
20260505062431 22 163 14.5 16.1 0.00 0.00 0.00 77 1003.8
20260505061927 22 132 4.8 19.3 0.00 0.00 0.00 76 1003.8
20260505061426 22 92 6.4 11.3 0.00 0.00 0.00 76 1003.9
20260505060923 22 200 6.4 27.4 0.00 0.00 0.00 76 1003.6
20260505060419 22 169 6.4 19.3 0.00 0.00 0.00 76 1004.0
20260505055916 22 177 9.7 27.4 0.00 0.00 0.00 76 1003.9
20260505055412 22 154 3.2 9.7 0.00 0.00 0.00 76 1003.9
20260505054909 22 190 4.8 14.5 0.00 0.00 0.00 75 1004.0
20260505054406 22 126 8.0 20.9 0.00 0.00 0.00 75 1004.2
20260505053904 22 151 4.8 17.7 0.00 0.00 0.00 74 1004.2
20260505053401 22 190 4.8 17.7 0.00 0.00 0.00 74 1004.2
20260505052858 22 209 11.3 17.7 0.00 0.00 0.00 74 1004.3
20260505052355 22 166 11.3 19.3 0.00 0.00 0.00 74 1004.2
20260505051852 22 182 6.4 17.7 0.00 0.00 0.00 73 1004.1
20260505051349 22 122 3.2 24.1 0.00 0.00 0.00 73 1004.0
20260505050847 22 155 11.3 20.9 0.00 0.00 0.00 73 1004.0
20260505050345 22 168 6.4 19.3 0.00 0.00 0.00 72 1004.2
20260505041312 22 151 6.4 9.7 0.00 0.00 0.00 72 1004.7
20260505040810 22 189 9.7 9.7 0.00 0.00 0.00 71 1004.6
20260505040307 22 172 4.8 9.7 0.00 0.00 0.00 71 1004.9
20260505035803 22 131 12.9 19.3 0.00 0.00 0.00 71 1004.6
20260505035259 22 173 3.2 14.5 0.00 0.00 0.00 71 1004.4
20260505034757 22 156 4.8 16.1 0.00 0.00 0.00 71 1004.3
20260505034254 22 150 6.4 12.9 0.00 0.00 0.00 71 1004.4
20260505033750 22 150 4.8 14.5 0.00 0.00 0.00 71 1004.5
20260505033248 22 157 4.8 11.3 0.00 0.00 0.00 71 1004.7
20260505032746 22 172 4.8 9.7 0.00 0.00 0.00 71 1004.5
20260505032241 22 181 3.2 11.3 0.00 0.00 0.00 71 1004.4
20260505031739 22 141 9.7 11.3 0.00 0.00 0.00 70 1004.6
20260505031235 22 122 6.4 14.5 0.00 0.00 0.00 70 1004.7
20260505030732 22 159 4.8 9.7 0.00 0.00 0.00 70 1004.6
20260505030228 22 160 3.2 12.9 0.00 0.00 0.00 69 1004.9
20260505025724 22 167 4.8 9.7 0.00 0.00 0.00 69 1004.9
20260505025222 22 174 6.4 9.7 0.00 0.00 0.00 69 1004.6
20260505024720 23 187 4.8 12.9 0.00 0.00 0.00 68 1004.8
20260505024217 23 145 8.0 11.3 0.00 0.00 0.00 68 1004.7
20260505023715 23 134 4.8 11.3 0.00 0.00 0.00 67 1004.7
20260505023212 23 140 6.4 11.3 0.00 0.00 0.00 67 1004.7
20260505022709 23 130 4.8 9.7 0.00 0.00 0.00 67 1004.6
20260505022206 23 144 6.4 9.7 0.00 0.00 0.00 66 1004.5
20260505021703 23 159 9.7 16.1 0.00 0.00 0.00 66 1004.5
20260505021159 23 348 3.2 9.7 0.00 0.00 0.00 66 1004.4
20260505020655 23 130 1.6 8.0 0.00 0.00 0.00 66 1004.6
20260505020151 23 146 3.2 8.0 0.00 0.00 0.00 65 1004.6
20260505015648 23 157 9.7 19.3 0.00 0.00 0.00 65 1004.6
20260505015145 23 175 6.4 16.1 0.00 0.00 0.00 64 1004.5
20260505014642 23 159 6.4 16.1 0.00 0.00 0.00 64 1004.6
20260505014139 24 140 4.8 9.7 0.00 0.00 0.00 64 1004.5
20260505013636 24 109 3.2 19.3 0.00 0.00 0.00 64 1004.5
20260505013133 24 176 14.5 17.7 0.00 0.00 0.00 63 1004.5
20260505012632 24 226 3.2 12.9 0.00 0.00 0.00 63 1004.6
20260505012128 24 117 4.8 14.5 0.00 0.00 0.00 63 1004.4
20260505011624 24 112 3.2 14.5 0.00 0.00 0.00 63 1004.6
20260505011121 24 139 3.2 12.9 0.00 0.00 0.00 62 1004.5
20260505010616 24 139 6.4 16.1 0.00 0.00 0.00 62 1004.5
20260505010114 24 150 6.4 22.5 0.00 0.00 0.00 62 1004.6
20260505005609 24 182 8.0 9.7 0.00 0.00 0.00 62 1004.7
20260505005107 25 147 8.0 16.1 0.00 0.00 0.00 61 1004.6
20260505004604 25 146 8.0 16.1 0.00 0.00 0.00 61 1004.3
20260505004101 25 188 14.5 17.7 0.00 0.00 0.00 61 1004.3
20260505003558 25 149 6.4 9.7 0.00 0.00 0.00 61 1004.6
20260505003055 25 175 6.4 16.1 0.00 0.00 0.00 60 1004.5
20260505002556 25 165 3.2 16.1 0.00 0.00 0.00 60 1004.9
20260505002055 25 198 8.0 12.9 0.00 0.00 0.00 59 1004.7
20260505001552 26 152 9.7 25.7 0.00 0.00 0.00 58 1004.8
20260505001049 26 186 11.3 20.9 0.00 0.00 0.00 57 1004.7
20260505000546 26 144 6.4 27.4 0.00 0.00 0.00 57 1004.5
20260505000044 26 201 8.0 16.1 0.00 0.00 0.00 57 1004.6
20260504235540 26 155 4.8 16.1 0.00 0.00 0.00 58 1004.7
20260504235037 26 184 8.0 9.7 0.00 0.00 0.00 58 1004.8
20260504234534 26 171 9.7 11.3 0.00 0.00 0.00 57 1004.6
20260504234031 26 153 6.4 19.3 0.00 0.00 0.00 57 1005.0
20260504233526 26 171 12.9 19.3 0.00 0.00 0.00 56 1005.0
20260504233023 26 163 8.0 17.7 0.00 0.00 0.00 56 1004.8
20260504232520 26 205 11.3 17.7 0.00 0.00 0.00 56 1004.8
20260504232018 26 288 3.2 11.3 0.00 0.00 0.00 56 1005.0
20260504231514 26 130 8.0 20.9 0.00 0.00 0.00 55 1005.3
20260504231010 27 200 3.2 17.7 0.00 0.00 0.00 53 1005.2
20260504230507 27 166 3.2 22.5 0.00 0.00 0.00 53 1005.1
20260504230006 27 179 12.9 27.4 0.00 0.00 0.00 53 1005.3
20260504225502 27 140 12.9 17.7 0.00 0.00 0.00 52 1005.5
20260504225000 27 180 11.3 17.7 0.00 0.00 0.00 53 1005.5
20260504224456 27 166 6.4 17.7 0.00 0.00 0.00 53 1005.0
20260504223953 27 181 9.7 22.5 0.00 0.00 0.00 54 1005.0
20260504223449 27 172 11.3 25.7 0.00 0.00 0.00 52 1005.4
20260504222945 27 166 3.2 17.7 0.00 0.00 0.00 52 1005.2
20260504222443 27 175 9.7 14.5 0.00 0.00 0.00 52 1005.6
20260504221940 27 165 8.0 19.3 0.00 0.00 0.00 52 1005.4
20260504221437 27 157 4.8 20.9 0.00 0.00 0.00 52 1005.6
20260504220934 27 165 8.0 14.5 0.00 0.00 0.00 52 1005.6
20260504220431 27 163 6.4 14.5 0.00 0.00 0.00 51 1005.5
20260504215928 28 208 11.3 20.9 0.00 0.00 0.00 50 1005.6
20260504215425 27 186 8.0 17.7 0.00 0.00 0.00 52 1005.8
20260504214921 27 204 11.3 14.5 0.00 0.00 0.00 52 1005.8
20260504214418 27 160 16.1 17.7 0.00 0.00 0.00 51 1006.0
20260504213914 27 226 3.2 17.7 0.00 0.00 0.00 51 1006.3
20260504213410 28 168 6.4 14.5 0.00 0.00 0.00 50 1006.2
20260504212908 27 221 3.2 16.1 0.00 0.00 0.00 51 1006.2
20260504212403 27 181 8.0 16.1 0.00 0.00 0.00 50 1006.4
20260504211902 27 178 11.3 20.9 0.00 0.00 0.00 51 1006.5
20260504211357 27 131 8.0 19.3 0.00 0.00 0.00 49 1006.5
20260504210855 27 195 17.7 17.7 0.00 0.00 0.00 50 1006.4
20260504210351 27 164 8.0 25.7 0.00 0.00 0.00 50 1006.4
20260504205849 27 160 11.3 17.7 0.00 0.00 0.00 50 1006.6
20260504205346 27 175 16.1 20.9 0.00 0.00 0.00 49 1007.0
20260504204844 27 179 12.9 24.1 0.00 0.00 0.00 48 1006.8
20260504204343 27 185 6.4 20.9 0.00 0.00 0.00 48 1006.9
20260504203842 27 173 8.0 19.3 0.00 0.00 0.00 48 1007.1
20260504203338 27 157 8.0 29.0 0.00 0.00 0.00 49 1007.1
20260504202834 27 214 12.9 29.0 0.00 0.00 0.00 47 1007.4
20260504202331 27 201 11.3 17.7 0.00 0.00 0.00 47 1007.7
20260504201828 27 204 19.3 20.9 0.00 0.00 0.00 48 1007.4
20260504201325 27 208 3.2 12.9 0.00 0.00 0.00 49 1008.0
20260504200823 27 175 6.4 14.5 0.00 0.00 0.00 50 1007.8
20260504200319 27 206 0.0 14.5 0.00 0.00 0.00 50 1008.0
20260504195815 27 248 3.2 17.7 0.00 0.00 0.00 49 1007.8
20260504195311 27 83 3.2 16.1 0.00 0.00 0.00 50 1008.0
20260504194808 26 188 6.4 16.1 0.00 0.00 0.00 50 1008.1
20260504194304 26 181 20.9 27.4 0.00 0.00 0.00 47 1007.8
20260504193800 26 178 9.7 17.7 0.00 0.00 0.00 48 1008.1
20260504193258 26 179 8.0 19.3 0.00 0.00 0.00 47 1008.3
20260504192757 26 169 4.8 20.9 0.00 0.00 0.00 48 1008.3
20260504192254 26 199 14.5 38.6 0.00 0.00 0.00 46 1008.6
20260504191753 26 230 9.7 16.1 0.00 0.00 0.00 46 1009.0
20260504191249 26 164 6.4 25.7 0.00 0.00 0.00 46 1008.8
20260504190745 27 258 4.8 17.7 0.00 0.00 0.00 44 1008.7
20260504190241 26 204 11.3 14.5 0.00 0.00 0.00 45 1008.9
20260504185738 27 182 6.4 16.1 0.00 0.00 0.00 45 1009.0
20260504185235 26 168 8.0 17.7 0.00 0.00 0.00 44 1008.6
20260504184731 26 169 6.4 16.1 0.00 0.00 0.00 45 1008.7
20260504184227 26 168 9.7 17.7 0.00 0.00 0.00 45 1008.7
20260504183723 26 171 8.0 19.3 0.00 0.00 0.00 46 1008.9
20260504183220 26 192 9.7 17.7 0.00 0.00 0.00 46 1009.2
20260504182718 25 166 11.3 17.7 0.00 0.00 0.00 47 1009.2
20260504182215 25 171 9.7 17.7 0.00 0.00 0.00 48 1009.4
20260504181713 25 168 12.9 19.3 0.00 0.00 0.00 46 1009.4
20260504181210 26 175 14.5 24.1 0.00 0.00 0.00 46 1009.3
20260504180709 26 148 12.9 17.7 0.00 0.00 0.00 47 1009.4
20260504180207 25 208 3.2 22.5 0.00 0.00 0.00 48 1009.5
20260504175704 25 186 4.8 20.9 0.00 0.00 0.00 48 1009.7
20260504175201 25 184 4.8 22.5 0.00 0.00 0.00 48 1010.0
20260504174659 25 199 8.0 16.1 0.00 0.00 0.00 47 1010.0
20260504174156 25 193 6.4 16.1 0.00 0.00 0.00 47 1009.8
20260504173652 24 124 4.8 27.4 0.00 0.00 0.00 48 1010.3
20260504173150 24 226 11.3 22.5 0.00 0.00 0.00 47 1010.3
20260504172646 24 190 8.0 17.7 0.00 0.00 0.00 49 1010.1
20260504172143 24 219 11.3 16.1 0.00 0.00 0.00 49 1010.3
20260504171639 24 164 9.7 22.5 0.00 0.00 0.00 49 1010.4
20260504171137 23 164 8.0 19.3 0.00 0.00 0.00 50 1010.4
20260504170633 23 156 9.7 22.5 0.00 0.00 0.00 49 1010.5
20260504170131 23 166 6.4 22.5 0.00 0.00 0.00 50 1010.7
20260504151016 21 216 6.4 19.3 0.00 0.00 0.00 60 1011.3
20260504150514 21 187 8.0 14.5 0.00 0.00 0.00 60 1011.5